(63) Ausonia
ephemeris date magn radius delta ra dec elong phase
Today14 Aug 202612.52.608 AU2.823 AU04h45m+27°31'67.4°21.0°
Opposition9 Dec 202610.82.687 AU1.709 AU05h05m+31°50'171.0°3.3°
(63) Ausonia - 2026-08-14
astro.vanbuitenen.nl


 
-1 year
-1 month
-1 day
Now
+1 day
+1 month
+1 year

The interactive orbit chart above shows the body's path through the solar system and its position at the given date. Green and blue lines are shown perpendicular to the ecliptic plane: Green if the path is above the ecliptic plane, blue if it is below. (Left-click and drag to rotate the view; Right-click and drag to move the view; Use scroll wheel to zoom in our out.)

The orbital elements of Ausonia are:

            e (Eccentricity)                : 0.1281449
            a (Semimajor axis)              : 2.3942024
            i (Inclination)                 : 5.77350
            Ω (Longitude of ascending node) : 337.68395
            ω (Argument of perihelion)      : 295.55111
            M (Mean anomaly)                : 111.38411
            Epoch                           : 2026 Jun 09

            L (Longitude of perihelion)     : 273.34863
            B (Latitude of perihelion)      : -5.20721
            P (Orbital period in years)     : 3.70            
        

The light curve chart below shows the estimated development of the minor planet's magnitude.


The all-sky chart below shows the path of the minor planet over the same period as the light curve. The current position is marked yellow.





The following chart shows the path of the minor planet in the next few days. The field of view is optimized for (~10x50) binoculars and finderscopes.




Ephemerides:
Date       Time       RA (2000)    DEC (2000)    delta   radius  elong  phase   PA    magn
2026-08-14 00:00 UT   04 45 43.7   +27 31 44     2.823    2.608   67.4   21.0   265   12.5 
2026-08-14 03:30 UT   04 45 55.9   +27 32 19     2.821    2.608   67.5   21.0   265   12.5 
2026-08-15 00:00 UT   04 47 06.8   +27 35 45     2.812    2.609   68.1   21.1   265   12.5 
2026-08-16 00:00 UT   04 48 29.3   +27 39 44     2.801    2.610   68.7   21.2   265   12.5 
2026-08-17 00:00 UT   04 49 51.2   +27 43 40     2.789    2.611   69.4   21.3   265   12.5 
2026-08-18 00:00 UT   04 51 12.4   +27 47 33     2.778    2.612   70.0   21.4   265   12.5 
2026-08-19 00:00 UT   04 52 32.9   +27 51 24     2.766    2.613   70.7   21.4   265   12.5 
2026-08-20 00:00 UT   04 53 52.7   +27 55 12     2.755    2.614   71.4   21.5   265   12.5 
2026-08-21 00:00 UT   04 55 11.9   +27 58 57     2.743    2.615   72.0   21.6   265   12.5 
2026-08-22 00:00 UT   04 56 30.3   +28 02 40     2.732    2.615   72.7   21.7   265   12.5 
2026-08-23 00:00 UT   04 57 48.0   +28 06 20     2.720    2.616   73.4   21.7   265   12.5 
2026-08-24 00:00 UT   04 59 05.0   +28 09 59     2.708    2.617   74.0   21.8   266   12.5 
2026-08-25 00:00 UT   05 00 21.2   +28 13 34     2.697    2.618   74.7   21.9   266   12.5 
2026-08-26 00:00 UT   05 01 36.7   +28 17 08     2.685    2.619   75.4   21.9   266   12.4 
2026-08-27 00:00 UT   05 02 51.4   +28 20 39     2.673    2.620   76.1   22.0   266   12.4 
2026-08-28 00:00 UT   05 04 05.3   +28 24 08     2.661    2.621   76.7   22.0   266   12.4 
2026-08-29 00:00 UT   05 05 18.3   +28 27 35     2.649    2.622   77.4   22.1   266   12.4 
2026-08-30 00:00 UT   05 06 30.6   +28 31 00     2.637    2.623   78.1   22.1   266   12.4 
2026-08-31 00:00 UT   05 07 42.0   +28 34 23     2.625    2.623   78.8   22.2   266   12.4 
2026-09-01 00:00 UT   05 08 52.6   +28 37 44     2.613    2.624   79.5   22.2   266   12.4 
2026-09-02 00:00 UT   05 10 02.2   +28 41 03     2.601    2.625   80.2   22.3   266   12.4 
2026-09-03 00:00 UT   05 11 11.0   +28 44 21     2.589    2.626   80.9   22.3   266   12.4 
2026-09-04 00:00 UT   05 12 18.8   +28 47 36     2.576    2.627   81.7   22.3   266   12.4 
2026-09-05 00:00 UT   05 13 25.8   +28 50 50     2.564    2.628   82.4   22.4   266   12.4 
2026-09-06 00:00 UT   05 14 31.7   +28 54 02     2.552    2.629   83.1   22.4   266   12.4 
2026-09-07 00:00 UT   05 15 36.7   +28 57 13     2.540    2.629   83.8   22.4   266   12.3 
2026-09-08 00:00 UT   05 16 40.6   +29 00 22     2.527    2.630   84.5   22.4   266   12.3 
2026-09-09 00:00 UT   05 17 43.6   +29 03 29     2.515    2.631   85.3   22.4   266   12.3 
2026-09-10 00:00 UT   05 18 45.5   +29 06 35     2.502    2.632   86.0   22.4   266   12.3 
2026-09-11 00:00 UT   05 19 46.3   +29 09 40     2.490    2.633   86.8   22.4   266   12.3 
2026-09-12 00:00 UT   05 20 46.1   +29 12 44     2.478    2.633   87.5   22.4   266   12.3 
2026-09-13 00:00 UT   05 21 44.7   +29 15 46     2.465    2.634   88.3   22.4   266   12.3 


    Terminology:
            
    delta:  distance between minor planet and earth in AU
    radius: distance between minor planet and sun in AU
    magn:   magnitude (brightness) estimate    
    ra:     right ascension in hours (24h = 360deg)
    dec:    declination in degrees
    elong:  elongation in degrees (angle sun-earth-minor planet)    
    phase:  phase angle in degrees (angle sun-minor planet-earth)        
    AU:     Astronomical Unit (mean distance between earth and sun: 149597870.7 km
    

Orbital elements provided by the MPC (Minor Planet Center).
Calculations by a modified version of AAPlus, a C# implementation of the AA+ project by PJ Naughter from the algorithms presented in the book "Astronomical Algorithms" by Jean Meeus.
NGC2000 dso catalog and star labels from VizieR as provided by the Strasbourg astronomical Data Center.
Tycho2 catalog from the ESO archive.